TimeCST,TemperatureF,Dew PointF,Humidity,Sea Level PressureIn,VisibilityMPH,Wind Direction,Wind SpeedMPH,Gust SpeedMPH,PrecipitationIn,Events,Conditions,WindDirDegrees,DateUTC
12:15 AM,32.0,14.0,48,30.32,10.0,North,8.1,-,N/A,,Clear,360,2013-02-20 06:15:00
12:35 AM,32.0,17.6,55,30.32,10.0,North,6.9,-,N/A,,Clear,350,2013-02-20 06:35:00
12:55 AM,30.2,15.8,55,30.32,10.0,NNW,5.8,-,N/A,,Clear,340,2013-02-20 06:55:00
1:15 AM,30.2,15.8,55,30.33,10.0,North,5.8,-,N/A,,Clear,350,2013-02-20 07:15:00
1:35 AM,30.2,14.0,51,30.33,10.0,North,8.1,-,N/A,,Clear,350,2013-02-20 07:35:00
1:55 AM,30.2,14.0,51,30.33,10.0,North,9.2,-,N/A,,Clear,360,2013-02-20 07:55:00
2:15 AM,30.2,12.2,47,30.33,10.0,North,6.9,-,N/A,,Clear,10,2013-02-20 08:15:00
2:35 AM,28.4,15.8,59,30.33,10.0,North,4.6,-,N/A,,Clear,360,2013-02-20 08:35:00
2:55 AM,28.4,15.8,59,30.34,10.0,North,4.6,-,N/A,,Clear,350,2013-02-20 08:55:00
3:15 AM,28.4,15.8,59,30.33,10.0,North,6.9,-,N/A,,Clear,360,2013-02-20 09:15:00
3:35 AM,28.4,12.2,51,30.33,10.0,North,6.9,-,N/A,,Clear,10,2013-02-20 09:35:00
3:55 AM,28.4,14.0,55,30.32,10.0,North,5.8,-,N/A,,Clear,360,2013-02-20 09:55:00
4:35 AM,28.4,14.0,55,30.32,10.0,NNE,6.9,-,N/A,,Clear,20,2013-02-20 10:35:00
4:55 AM,28.4,14.0,55,30.31,10.0,North,6.9,-,N/A,,Clear,10,2013-02-20 10:55:00
5:15 AM,28.4,15.8,59,30.33,10.0,North,5.8,-,N/A,,Clear,360,2013-02-20 11:15:00
5:35 AM,28.4,15.8,59,30.33,10.0,North,4.6,-,N/A,,Clear,10,2013-02-20 11:35:00
5:55 AM,26.6,15.8,64,30.33,10.0,North,8.1,-,N/A,,Clear,360,2013-02-20 11:55:00
6:15 AM,26.6,15.8,64,30.34,10.0,North,8.1,-,N/A,,Clear,360,2013-02-20 12:15:00
6:35 AM,26.6,15.8,64,30.36,10.0,North,4.6,-,N/A,,Clear,350,2013-02-20 12:35:00
6:55 AM,26.6,15.8,64,30.37,10.0,NNW,5.8,-,N/A,,Clear,340,2013-02-20 12:55:00
7:15 AM,26.6,14.0,59,30.38,10.0,North,6.9,-,N/A,,Clear,350,2013-02-20 13:15:00
7:35 AM,28.4,12.2,51,30.38,10.0,North,8.1,-,N/A,,Clear,360,2013-02-20 13:35:00
7:55 AM,28.4,10.4,47,30.39,10.0,NNE,5.8,-,N/A,,Clear,20,2013-02-20 13:55:00
8:15 AM,28.4,12.2,51,30.40,10.0,North,8.1,-,N/A,,Clear,360,2013-02-20 14:15:00
8:35 AM,28.4,10.4,47,30.41,10.0,North,6.9,-,N/A,,Clear,360,2013-02-20 14:35:00
8:55 AM,28.4,10.4,47,30.40,10.0,NNE,6.9,-,N/A,,Clear,30,2013-02-20 14:55:00
9:15 AM,28.4,10.4,47,30.39,10.0,NE,9.2,-,N/A,,Clear,50,2013-02-20 15:15:00
9:35 AM,28.4,10.4,47,30.38,10.0,NE,10.4,-,N/A,,Clear,50,2013-02-20 15:35:00
10:35 AM,30.2,12.2,47,30.37,10.0,NE,9.2,-,N/A,,Clear,40,2013-02-20 16:35:00
10:55 AM,28.4,12.2,51,30.38,10.0,NE,10.4,-,N/A,,Clear,50,2013-02-20 16:55:00
11:15 AM,30.2,12.2,47,30.38,10.0,NE,9.2,-,N/A,,Clear,50,2013-02-20 17:15:00
11:35 AM,30.2,10.4,44,30.39,10.0,NE,9.2,-,N/A,,Clear,50,2013-02-20 17:35:00
11:55 AM,30.2,12.2,47,30.38,10.0,ENE,10.4,-,N/A,,Clear,60,2013-02-20 17:55:00
12:35 PM,30.2,14.0,51,30.38,10.0,NE,11.5,-,N/A,,Clear,50,2013-02-20 18:35:00
12:55 PM,30.2,14.0,51,30.37,10.0,ENE,11.5,-,N/A,,Clear,60,2013-02-20 18:55:00
1:15 PM,30.2,14.0,51,30.33,10.0,NE,12.7,-,N/A,,Clear,50,2013-02-20 19:15:00
1:35 PM,32.0,15.8,51,30.32,10.0,NE,15.0,-,N/A,,Clear,40,2013-02-20 19:35:00
1:55 PM,32.0,14.0,48,30.29,10.0,NE,16.1,-,N/A,,Clear,50,2013-02-20 19:55:00
2:35 PM,32.0,15.8,51,30.29,10.0,NE,13.8,-,N/A,,Clear,50,2013-02-20 20:35:00
2:55 PM,32.0,15.8,51,30.29,10.0,NE,11.5,-,N/A,,Clear,50,2013-02-20 20:55:00
3:15 PM,32.0,15.8,51,30.29,10.0,ENE,10.4,-,N/A,,Clear,60,2013-02-20 21:15:00
3:35 PM,32.0,15.8,51,30.28,10.0,East,8.1,-,N/A,,Clear,80,2013-02-20 21:35:00
3:55 PM,32.0,17.6,55,30.27,10.0,ENE,10.4,-,N/A,,Clear,70,2013-02-20 21:55:00
4:15 PM,32.0,17.6,55,30.27,10.0,ENE,11.5,-,N/A,,Clear,70,2013-02-20 22:15:00
4:35 PM,32.0,17.6,55,30.28,10.0,East,10.4,-,N/A,,Clear,80,2013-02-20 22:35:00
4:55 PM,32.0,19.4,60,30.28,10.0,ENE,11.5,-,N/A,,Clear,70,2013-02-20 22:55:00
5:15 PM,32.0,17.6,55,30.29,10.0,East,10.4,-,N/A,,Scattered Clouds,90,2013-02-20 23:15:00
5:55 PM,32.0,19.4,60,30.29,10.0,ENE,9.2,-,N/A,,Mostly Cloudy,70,2013-02-20 23:55:00
6:15 PM,32.0,19.4,60,30.29,10.0,ENE,10.4,-,N/A,,Overcast,70,2013-02-21 00:15:00
6:35 PM,32.0,19.4,60,30.28,10.0,ENE,10.4,-,N/A,,Overcast,70,2013-02-21 00:35:00
6:55 PM,32.0,19.4,60,30.28,10.0,ENE,10.4,-,N/A,,Overcast,60,2013-02-21 00:55:00
7:15 PM,32.0,19.4,60,30.28,10.0,ENE,10.4,-,N/A,,Overcast,60,2013-02-21 01:15:00
7:35 PM,32.0,19.4,60,30.27,10.0,ENE,11.5,-,N/A,,Overcast,60,2013-02-21 01:35:00
7:55 PM,32.0,19.4,60,30.27,10.0,NE,13.8,-,N/A,,Overcast,50,2013-02-21 01:55:00
8:15 PM,32.0,19.4,60,30.26,10.0,ENE,12.7,-,N/A,,Overcast,60,2013-02-21 02:15:00
8:35 PM,32.0,19.4,60,30.26,10.0,ENE,12.7,-,N/A,,Overcast,60,2013-02-21 02:35:00
8:55 PM,32.0,19.4,60,30.25,10.0,ENE,10.4,-,N/A,,Overcast,70,2013-02-21 02:55:00
9:35 PM,32.0,19.4,60,30.26,10.0,ENE,12.7,-,N/A,,Overcast,60,2013-02-21 03:35:00
9:55 PM,32.0,19.4,60,30.26,10.0,ENE,12.7,-,N/A,,Overcast,60,2013-02-21 03:55:00
10:15 PM,32.0,21.2,64,30.27,10.0,NE,11.5,-,N/A,,Overcast,50,2013-02-21 04:15:00
10:55 PM,32.0,21.2,64,30.26,10.0,ENE,12.7,-,N/A,,Overcast,60,2013-02-21 04:55:00
11:15 PM,32.0,21.2,64,30.25,10.0,NE,12.7,-,N/A,,Overcast,50,2013-02-21 05:15:00
11:35 PM,32.0,21.2,64,30.25,10.0,NE,16.1,-,N/A,,Overcast,50,2013-02-21 05:35:00
11:55 PM,32.0,19.4,60,30.25,10.0,ENE,13.8,-,N/A,,Overcast,60,2013-02-21 05:55:00